BBC372 VNKT-VGHS

Flight info

Callsign BBC372
Flight time N/A
Altitude 37000
Route IGRIS1E AHALE R344 RAJ G463 OLPAS
Aircraft B77W/H-SDE1E2E3FGHIJ2J3J4J5M1RWXY/LB1D1

Departure

Time 2026-04-27 14:17
Airport Tribhuvan International Airport (VNKT)

Arrival

Time N/A
Airport Hazrat Shahjalal International Airport (VGHS)
Time Latitude Longitude Altitude Speed Heading
2026-04-27 13:47 27.70021 85.35883 4402 ft 0 kts 292°
2026-04-27 14:03 27.70016 85.35897 4402 ft 4 kts 291°
2026-04-27 14:03 27.70006 85.35923 4402 ft 3 kts 296°
2026-04-27 14:03 27.69998 85.35938 4402 ft 2 kts 320°
2026-04-27 14:04 27.69988 85.35944 4402 ft 2 kts 12°
2026-04-27 14:04 27.69978 85.35940 4402 ft 2 kts 20°
2026-04-27 14:04 27.69973 85.35938 4402 ft 0 kts 21°
2026-04-27 14:09 27.69976 85.35939 4402 ft 2 kts 21°
2026-04-27 14:10 27.70000 85.35951 4402 ft 6 kts 21°
2026-04-27 14:10 27.70043 85.35970 4402 ft 7 kts 21°
2026-04-27 14:10 27.70092 85.35992 4402 ft 8 kts 21°
2026-04-27 14:10 27.70143 85.36015 4402 ft 8 kts 21°
2026-04-27 14:11 27.70194 85.36038 4403 ft 8 kts 21°
2026-04-27 14:11 27.70246 85.36061 4403 ft 8 kts 21°
2026-04-27 14:11 27.70297 85.36084 4403 ft 8 kts 21°
2026-04-27 14:11 27.70349 85.36107 4403 ft 8 kts 22°
2026-04-27 14:12 27.70400 85.36131 4403 ft 8 kts 22°
2026-04-27 14:12 27.70451 85.36155 4403 ft 8 kts 22°
2026-04-27 14:12 27.70502 85.36178 4403 ft 8 kts 22°
2026-04-27 14:12 27.70551 85.36208 4403 ft 8 kts 39°
2026-04-27 14:13 27.70580 85.36261 4404 ft 8 kts 66°
2026-04-27 14:13 27.70603 85.36319 4405 ft 8 kts 58°
2026-04-27 14:13 27.70645 85.36362 4406 ft 8 kts 31°
2026-04-27 14:13 27.70697 85.36387 4406 ft 8 kts 21°
2026-04-27 14:14 27.70749 85.36410 4406 ft 8 kts 21°
2026-04-27 14:14 27.70814 85.36439 4404 ft 12 kts 21°
2026-04-27 14:14 27.70852 85.36500 4403 ft 7 kts 70°
2026-04-27 14:14 27.70877 85.36504 4402 ft 3 kts 320°
2026-04-27 14:15 27.70878 85.36489 4402 ft 1 kts 263°
2026-04-27 14:15 27.70869 85.36478 4402 ft 9 kts 226°
2026-04-27 14:15 27.70801 85.36435 4405 ft 10 kts 202°
2026-04-27 14:15 27.70745 85.36409 4406 ft 8 kts 202°
2026-04-27 14:16 27.70698 85.36388 4406 ft 8 kts 202°
2026-04-27 14:16 27.70453 85.36276 4408 ft 75 kts 204°
2026-04-27 14:16 27.69748 85.35956 4401 ft 141 kts 202°
2026-04-27 14:16 27.68701 85.35472 4517 ft 177 kts 203°
2026-04-27 14:17 27.67537 85.34930 5013 ft 182 kts 203°
2026-04-27 14:17 27.66385 85.34312 5605 ft 184 kts 211°
2026-04-27 14:17 27.65447 85.33324 6051 ft 190 kts 241°
2026-04-27 14:17 27.64965 85.31873 6282 ft 211 kts 259°
2026-04-27 14:18 27.64960 85.30133 6460 ft 236 kts 283°
2026-04-27 14:18 27.65696 85.28393 6821 ft 256 kts 309°
2026-04-27 14:18 27.67142 85.27170 7365 ft 266 kts 334°
2026-04-27 14:18 27.68946 85.26587 8008 ft 274 kts 355°
2026-04-27 14:19 27.70832 85.26886 8718 ft 278 kts 20°
2026-04-27 14:19 27.72465 85.28050 9513 ft 281 kts 44°
2026-04-27 14:19 27.73576 85.29866 10224 ft 283 kts 64°
2026-04-27 14:19 27.74394 85.31906 10725 ft 295 kts 64°
2026-04-27 14:20 27.75280 85.34074 11116 ft 316 kts 65°
2026-04-27 14:20 27.75838 85.36571 11274 ft 343 kts 88°
2026-04-27 14:20 27.75562 85.39366 11456 ft 372 kts 106°
2026-04-27 14:20 27.74304 85.41991 11799 ft 392 kts 133°
2026-04-27 14:21 27.72128 85.43796 12807 ft 397 kts 156°
2026-04-27 14:21 27.69530 85.44792 13052 ft 393 kts 161°
2026-04-27 14:21 27.67082 85.46347 13293 ft 416 kts 141°
2026-04-27 14:21 27.65124 85.48796 13962 ft 426 kts 125°
2026-04-27 14:22 27.63705 85.51697 14772 ft 429 kts 114°
2026-04-27 14:22 27.62734 85.54874 15627 ft 430 kts 105°
2026-04-27 14:22 27.61941 85.58149 16424 ft 433 kts 105°
2026-04-27 14:22 27.61096 85.61431 17191 ft 438 kts 106°
2026-04-27 14:23 27.60226 85.64699 17928 ft 442 kts 107°
2026-04-27 14:23 27.59327 85.68041 18620 ft 446 kts 107°
2026-04-27 14:23 27.58271 85.71339 19266 ft 450 kts 114°
2026-04-27 14:23 27.56690 85.74405 19925 ft 454 kts 127°
2026-04-27 14:24 27.54583 85.77076 20600 ft 457 kts 136°
2026-04-27 14:24 27.52162 85.79419 21156 ft 460 kts 141°
2026-04-27 14:24 27.49703 85.81776 21715 ft 467 kts 139°
2026-04-27 14:24 27.47263 85.84216 22346 ft 471 kts 139°
2026-04-27 14:25 27.44838 85.86670 23013 ft 475 kts 139°
2026-04-27 14:25 27.42364 85.89161 23611 ft 479 kts 139°
2026-04-27 14:25 27.39858 85.91670 24072 ft 484 kts 139°
2026-04-27 14:25 27.37322 85.94205 24562 ft 489 kts 139°
2026-04-27 14:26 27.34768 85.96756 25095 ft 492 kts 139°
2026-04-27 14:26 27.32194 85.99327 25625 ft 495 kts 139°
2026-04-27 14:26 27.29644 86.01874 26132 ft 498 kts 139°
2026-04-27 14:26 27.27038 86.04476 26644 ft 502 kts 139°
2026-04-27 14:27 27.24420 86.07091 27171 ft 506 kts 139°
2026-04-27 14:27 27.21777 86.09727 27680 ft 510 kts 139°
2026-04-27 14:27 27.19157 86.12447 28159 ft 513 kts 134°
2026-04-27 14:27 27.16910 86.15586 28541 ft 518 kts 126°
2026-04-27 14:28 27.14875 86.18957 28977 ft 522 kts 124°
2026-04-27 14:28 27.12910 86.22336 29372 ft 525 kts 123°
2026-04-27 14:28 27.10894 86.25778 29765 ft 528 kts 124°
2026-04-27 14:28 27.08835 86.29210 30208 ft 529 kts 125°
2026-04-27 14:29 27.06749 86.32607 30714 ft 527 kts 126°